NOAA 17 DEB

Satellite information

Favourite Embed

Satellite Type and Status

DEBRISIN ORBIT

Key statistics

Satellite NOAA 17 DEB at a glance.

Uptime

8352

Days in orbit

Revolutions

≈ 14.3

Per day

Orbit

SSO

Sun Synchronous Orbit

Inclination

98.8

Latest

Satellite identification and parameters

Extended collection of information and parameters for NOAA 17 DEB.

Object identification

Identified? True

Debris? True

Object name: NOAA 17 DEB

International designator: 2002-032AU

Object number (NORAD): 48711

Object ID (CCSDS): 48711

Country: UNITED STATES OF AMERICA (US)

Current information (Y/N): Y

RCS size: SMALL

Orbital parameters

Period: 100.758 minutes

Inclination: 98.7852 deg

SMA: 7172.661 km

Apoapsis: 840.693 km

Periapsis: 748.359 km

RAAN: 69.6883 deg

Eccentricy: 0.0064365

Argument of periapsis: 119.9429 deg

Mean anomaly: 240.8164 deg

Mean motion: 14.29164842 rev/day

Mean motion (dot): 0.00006683 rev/day2

B* drag term: 0.0025903 1/REarth

Two-line elements (TLE)

Creation date: May 4, 2025, 5:21 p.m.

Reference frame: TEME

Reference center: EARTH

Epoch: May 4, 2025, 6:49 a.m. UTC

TLE line 0: 0 NOAA 17 DEB

TLE line 1: 1 48711U 02032AU 25124.28465904 .00006683 00000-0 25903-2 0 9994

TLE line 2: 2 48711 98.7852 69.6883 0064365 119.9429 240.8164 14.29164842212451

Live tracking on map

Real-time ground track for satellite NOAA 17 DEB.

In-orbit conjunctions

A list of the most updated potential collisions computed for object NOAA 17 DEB.

Target Orbit TCA Probability of collision Miss distance Type
SL-8 R/B LEO 2025-03-21 06:51:54 0.0001737174 388.0 (m) ROCKET BODY
CZ-6A DEB LEO 2025-02-14 23:35:07 0.0002090591 113.0 (m) DEBRIS

Associated space launch

NOAA M carried weather imagers and microwave and infrared sounders, as well as a SARSAT search-and-rescue package. It had an on-orbit mass of 1475 kg.

NOAA 17 DEB was lifted into orbit during the mission ‘Titan II SLV | NOAA 17’, on board a Titan II SLV space rocket.

The launch took place on June 24, 2002, 6:23 p.m. from Space Launch Complex 4W.

For more information about the launch, click the button.

Launch to space Titan II SLV | NOAA 17
Titan II SLV | NOAA 17

Agency: N/A

Status: Launch Successful

Launch date: June 24, 2002, 6:23 p.m. UTC

Rocket: Titan II SLV

Launch pad: Space Launch Complex 4W

Location: Vandenberg SFB, CA, USA

...

Latest news about this satellite

There are no fresh news available about this satellite. Check back as we update our databases every day.


Newsletter sign-up

Weekly statistics, charts and insights to help you stay on top of the space industry.